usa flag      new mexico flag

Language: 

LomaPinon History Data from Weather Underground


LomaPinon Weather Station Historical Data
 
Daily Summary for August 17, 2017 Units:  English    Metric   Both
« Previous Day
Next Day »
Daily Weekly Monthly Yearly Custom
  Current: High: Low: Average:
Temperature: 61.8 °F 68.7 °F 60.9 °F 64 °F
Dew Point: 39.1 °F 41.0 °F 34.3 °F 37.5 °F
Humidity: 43 % 46 % 30 % 38 %
Wind Speed: 0.0 mph 1.0 mph 0.0 mph 0 mph
Wind Gust: 0.0 mph 3.0 mph - -
Wind:Calm - - West
Pressure: 30.32 in 30.32 in 30.24 in -
Precipitation: 0.00 in      
Historical Graphs
 
 
Tabular Data for August 17, 2017
Time Temperature Dew Point Pressure Wind Wind Speed Wind Gust Humidity Rainfall Rate (Hourly) solar
00:02 68.7 °F 36.8 °F 30.24 in Calm     31 % 0.00 in 0 W/m2
00:07 68.6 °F 36.7 °F 30.24 in Calm     31 % 0.00 in 0 W/m2
00:12 68.5 °F 35.8 °F 30.24 in Calm     30 % 0.00 in 0 W/m2
00:17 68.5 °F 35.8 °F 30.24 in Calm   3.0 mph 30 % 0.00 in 0 W/m2
00:22 68.4 °F 35.7 °F 30.24 in Calm   3.0 mph 30 % 0.00 in 0 W/m2
00:27 68.4 °F 35.7 °F 30.24 in Calm   3.0 mph 30 % 0.00 in 0 W/m2
00:32 68.3 °F 35.6 °F 30.24 in Calm   3.0 mph 30 % 0.00 in 0 W/m2
00:37 68.2 °F 35.6 °F 30.24 in Calm   1.0 mph 30 % 0.00 in 0 W/m2
00:42 68.1 °F 35.5 °F 30.24 in Calm     30 % 0.00 in 0 W/m2
00:47 68.1 °F 35.5 °F 30.25 in Calm     30 % 0.00 in 0 W/m2
00:52 68.0 °F 36.2 °F 30.25 in Calm     31 % 0.00 in 0 W/m2
00:57 67.8 °F 36.0 °F 30.25 in Calm     31 % 0.00 in 0 W/m2
01:02 67.6 °F 36.7 °F 30.25 in Calm     32 % 0.00 in 0 W/m2
01:07 66.7 °F 35.9 °F 30.25 in Calm     32 % 0.00 in 0 W/m2
01:12 66.3 °F 35.5 °F 30.25 in Calm     32 % 0.00 in 0 W/m2
01:15 66.2 °F 36.2 °F 30.25 in Calm     33 % 0.00 in 0 W/m2
01:20 66.1 °F 36.1 °F 30.25 in Calm     33 % 0.00 in 0 W/m2
01:25 65.9 °F 36.0 °F 30.25 in Calm     33 % 0.00 in 0 W/m2
01:30 65.7 °F 35.8 °F 30.25 in Calm     33 % 0.00 in 0 W/m2
01:35 65.5 °F 36.4 °F 30.25 in Calm     34 % 0.00 in 0 W/m2
01:40 65.3 °F 36.2 °F 30.25 in Calm     34 % 0.00 in 0 W/m2
01:45 65.0 °F 35.9 °F 30.25 in Calm     34 % 0.00 in 0 W/m2
01:50 64.8 °F 35.8 °F 30.25 in Calm     34 % 0.00 in 0 W/m2
01:55 64.6 °F 35.6 °F 30.25 in Calm     34 % 0.00 in 0 W/m2
02:00 64.4 °F 36.1 °F 30.25 in Calm     35 % 0.00 in 0 W/m2
02:05 64.1 °F 35.9 °F 30.25 in Calm     35 % 0.00 in 0 W/m2
02:10 64.0 °F 35.8 °F 30.25 in Calm     35 % 0.00 in 0 W/m2
02:15 63.9 °F 35.7 °F 30.26 in Calm     35 % 0.00 in 0 W/m2
02:20 63.7 °F 35.5 °F 30.26 in Calm     35 % 0.00 in 0 W/m2
02:25 63.5 °F 36.0 °F 30.26 in Calm     36 % 0.00 in 0 W/m2
02:30 63.3 °F 35.9 °F 30.26 in Calm     36 % 0.00 in 0 W/m2
02:35 63.2 °F 35.1 °F 30.26 in Calm     35 % 0.00 in 0 W/m2
02:40 63.1 °F 35.0 °F 30.26 in Calm     35 % 0.00 in 0 W/m2
02:45 63.1 °F 34.3 °F 30.26 in Calm     34 % 0.00 in 0 W/m2
02:50 63.2 °F 34.3 °F 30.27 in Calm     34 % 0.00 in 0 W/m2
02:55 63.5 °F 35.3 °F 30.27 in Calm     35 % 0.00 in 0 W/m2
03:00 63.6 °F 35.4 °F 30.27 in Calm     35 % 0.00 in 0 W/m2
03:05 63.8 °F 36.3 °F 30.27 in Calm     36 % 0.00 in 0 W/m2
03:10 64.0 °F 37.2 °F 30.27 in Calm     37 % 0.00 in 0 W/m2
03:15 64.2 °F 36.7 °F 30.27 in Calm     36 % 0.00 in 0 W/m2
03:20 64.3 °F 37.5 °F 30.26 in Calm     37 % 0.00 in 0 W/m2
03:25 64.3 °F 37.5 °F 30.27 in Calm     37 % 0.00 in 0 W/m2
03:30 64.4 °F 37.5 °F 30.26 in Calm     37 % 0.00 in 0 W/m2
03:35 64.4 °F 38.2 °F 30.26 in Calm     38 % 0.00 in 0 W/m2
03:41 64.4 °F 38.9 °F 30.26 in Calm     39 % 0.00 in 0 W/m2
03:46 64.4 °F 38.9 °F 30.26 in Calm     39 % 0.00 in 0 W/m2
03:51 64.4 °F 39.5 °F 30.26 in Calm     40 % 0.00 in 0 W/m2
03:56 64.4 °F 39.5 °F 30.26 in Calm     40 % 0.00 in 0 W/m2
04:01 64.4 °F 39.5 °F 30.26 in Calm     40 % 0.00 in 0 W/m2
04:06 64.5 °F 40.3 °F 30.26 in Calm     41 % 0.00 in 0 W/m2
04:11 64.5 °F 40.3 °F 30.26 in Calm     41 % 0.00 in 0 W/m2
04:16 64.5 °F 39.6 °F 30.26 in Calm     40 % 0.00 in 0 W/m2
04:21 64.6 °F 40.4 °F 30.26 in Calm     41 % 0.00 in 0 W/m2
04:26 64.6 °F 41.0 °F 30.26 in Calm     42 % 0.00 in 0 W/m2
04:31 64.5 °F 40.9 °F 30.26 in Calm     42 % 0.00 in 0 W/m2
04:36 64.5 °F 40.9 °F 30.26 in Calm     42 % 0.00 in 0 W/m2
04:41 64.4 °F 40.8 °F 30.26 in Calm     42 % 0.00 in 0 W/m2
04:46 64.3 °F 40.7 °F 30.27 in Calm     42 % 0.00 in 0 W/m2
04:51 64.2 °F 40.6 °F 30.27 in Calm     42 % 0.00 in 0 W/m2
04:56 64.0 °F 40.4 °F 30.27 in Calm     42 % 0.00 in 0 W/m2
05:01 63.9 °F 40.3 °F 30.27 in Calm     42 % 0.00 in 0 W/m2
05:06 63.7 °F 40.8 °F 30.27 in Calm     43 % 0.00 in 0 W/m2
05:11 63.5 °F 40.6 °F 30.27 in Calm     43 % 0.00 in 0 W/m2
05:16 63.3 °F 41.0 °F 30.27 in Calm     44 % 0.00 in 0 W/m2
05:21 63.0 °F 40.7 °F 30.27 in Calm     44 % 0.00 in 0 W/m2
05:26 62.8 °F 40.5 °F 30.27 in Calm     44 % 0.00 in 0 W/m2
05:31 62.5 °F 40.9 °F 30.28 in Calm     45 % 0.00 in 0 W/m2
05:36 62.2 °F 40.6 °F 30.28 in Calm     45 % 0.00 in 0 W/m2
05:41 61.8 °F 40.8 °F 30.28 in Calm     46 % 0.00 in 0 W/m2
05:46 61.4 °F 38.7 °F 30.28 in Calm     43 % 0.00 in 0 W/m2
05:51 61.3 °F 38.0 °F 30.29 in Calm     42 % 0.00 in 0 W/m2
05:56 61.3 °F 37.4 °F 30.29 in Calm     41 % 0.00 in 0 W/m2
06:01 61.2 °F 36.7 °F 30.29 in Calm     40 % 0.00 in 0 W/m2
06:06 61.2 °F 36.7 °F 30.29 in Calm   1.0 mph 40 % 0.00 in 0 W/m2
06:11 61.3 °F 36.1 °F 30.29 in Calm   2.0 mph 39 % 0.00 in 0 W/m2
06:16 61.2 °F 36.0 °F 30.29 in Calm   2.0 mph 39 % 0.00 in 0 W/m2
06:21 61.2 °F 36.7 °F 30.29 in Calm     40 % 0.00 in 0 W/m2
06:26 61.2 °F 36.7 °F 30.29 in Calm     40 % 0.00 in 0 W/m2
06:31 61.1 °F 36.6 °F 30.29 in Calm     40 % 0.00 in 5 W/m2
06:36 61.0 °F 35.8 °F 30.30 in Calm     39 % 0.00 in 9 W/m2
06:41 60.9 °F 35.8 °F 30.30 in Calm   1.0 mph 39 % 0.00 in 12 W/m2
06:46 60.9 °F 35.8 °F 30.30 in West 1.0 mph 1.0 mph 39 % 0.00 in 18 W/m2
06:51 60.9 °F 36.4 °F 30.31 in Calm   1.0 mph 40 % 0.00 in 26 W/m2
06:57 60.9 °F 37.0 °F 30.31 in Calm   1.0 mph 41 % 0.00 in 33 W/m2
07:02 60.9 °F 37.0 °F 30.31 in Calm   1.0 mph 41 % 0.00 in 40 W/m2
07:07 61.0 °F 37.1 °F 30.31 in Calm     41 % 0.00 in 49 W/m2
07:12 61.0 °F 37.1 °F 30.31 in Calm     41 % 0.00 in 63 W/m2
07:17 61.1 °F 37.8 °F 30.31 in Calm     42 % 0.00 in 62 W/m2
07:22 61.3 °F 38.6 °F 30.31 in Calm     43 % 0.00 in 70 W/m2
07:27 61.6 °F 38.9 °F 30.32 in Calm     43 % 0.00 in 79 W/m2
07:32 61.8 °F 39.1 °F 30.32 in Calm     43 % 0.00 in 90 W/m2
Rio Rancho, New Mexico Weather
Compliments of Weather Underground - 2 mb
top